Location: Grand Mazuras
(45.9128°N, 1.7636°E)
Time: 06:49:18
(UTC+00:00)

Cosmos 405 - Pass Details

Date: 18 April 2021
Orbit: 448 x 459 km, 81.3° (Epoch: 15 May)

Event Time Altitude Azimuth Distance (km) Brightness Sun altitude
Rises 19:43:23 0° 188° (S) 2,443 6.4 -10.4°
Reaches altitude 10° 19:45:26 10° 188° (S) 1,578 5.5 -10.7°
Maximum altitude 19:48:52 85° 102° (ESE) 460 2.8 -11.2°
Drops below altitude 10° 19:52:22 10° 12° (NNE) 1,599 5.9 -11.7°
Sets 19:54:27 0° 12° (NNE) 2,480 6.9 -12.0°
